Location: Frankfurt+(oder)
(51.7984°N, 12.2168°E)
Time: 14:48:23
(UTC+02:00)

ISS - Pass Details

Date: 30 March 2017
Orbit: 399 x 409 km, 51.6° (Epoch: 30 March)

Event Time Altitude Azimuth Distance (km) Brightness Sun altitude
Rises 20:48:34 0° 227° (SW) 2,305 0.4 -10.8°
Reaches altitude 10° 20:50:45 10° 217° (SW) 1,451 -0.8 -11.2°
Maximum altitude 20:53:42 32° 152° (SSE) 711 -3.0 -11.6°
Enters shadow 20:55:20 20° 102° (ESE) 1,000 -2.5 -11.8°
